FENGYUN 1C DEB

Satellite information

Favourite Embed

Satellite Type and Status

DEBRISIN ORBIT

Key statistics

Satellite FENGYUN 1C DEB at a glance.

Uptime

9495

Days in orbit

Revolutions

≈ 14.6

Per day

Orbit

SSO

Sun Synchronous Orbit

Inclination

98.6

Latest

Satellite identification and parameters

Extended collection of information and parameters for FENGYUN 1C DEB.

Object identification

Identified? True

Debris? True

Object name: FENGYUN 1C DEB

International designator: 1999-025CU

Object number (NORAD): 29802

Object ID (CCSDS): 29802

Country: PEOPLES REPUBLIC OF CHINA (PRC)

Current information (Y/N): Y

RCS size: SMALL

Orbital parameters

Period: 98.904 minutes

Inclination: 98.6133 deg

SMA: 7084.395 km

Apoapsis: 735.035 km

Periapsis: 677.484 km

RAAN: 228.9311 deg

Eccentricy: 0.0040618

Argument of periapsis: 291.1137 deg

Mean anomaly: 189.8574 deg

Mean motion: 14.5595726 rev/day

Mean motion (dot): 0.00008658 rev/day2

B* drag term: 0.0019571 1/REarth

Two-line elements (TLE)

Creation date: May 8, 2025, 3:01 a.m.

Reference frame: TEME

Reference center: EARTH

Epoch: May 7, 2025, 7:58 p.m. UTC

TLE line 0: 0 FENGYUN 1C DEB

TLE line 1: 1 29802U 99025CU 25127.83223806 .00008658 00000-0 19571-2 0 9997

TLE line 2: 2 29802 98.6133 228.9311 0040618 291.1137 189.8574 14.55957260952824

Live tracking on map

Real-time ground track for satellite FENGYUN 1C DEB.

In-orbit conjunctions

A list of the most updated potential collisions computed for object FENGYUN 1C DEB.

Target Orbit TCA Probability of collision Miss distance Type
STEX LEO 2025-03-30 15:17:17 0.0003653638 268.0 (m) PAYLOAD
CZ-6A DEB LEO 2025-01-23 14:14:59 0.001467819 102.0 (m) DEBRIS

Associated space launch

Chinese polar orbiting meteorological satellite

FENGYUN 1C DEB was lifted into orbit during the mission ‘Long March 4B | Feng Yun 1C’, on board a Long March 4B space rocket.

The launch took place on May 10, 1999, 1:33 a.m. from Launch Complex 7.

For more information about the launch, click the button.

Launch to space Long March 4B | Feng Yun 1C
Long March 4B | Feng Yun 1C

Agency: N/A

Status: Launch Successful

Launch date: May 10, 1999, 1:33 a.m. UTC

Rocket: Long March 4B

Launch pad: Launch Complex 7

Location: Taiyuan Satellite Launch Center, People's Republic of China

...

Latest news about this satellite

There are no fresh news available about this satellite. Check back as we update our databases every day.


Newsletter sign-up

Weekly statistics, charts and insights to help you stay on top of the space industry.